{"data":{"norad_id":30797,"intl_designator":"2007-004D","name":"THEMIS D","alt_names":[],"object_type":"PAYLOAD","status":"ACTIVE","operator":null,"country":"US","launch_date":"2007-02-17","launch_site_code":"AFETR","launch_vehicle":null,"mission":null,"orbit_class":"UNKNOWN","rcs_meters":0.5012,"size_class":null,"mass_kg":null,"dimensions":null,"purposes":[],"wikipedia_slug":null,"has_3d_model":false,"image_url":null,"decayed_at":null,"tle_current":{"epoch":"2026-09-19T00:12:56.659104Z","epoch_age_seconds":143271,"freshness":"FRESH","line1":"1 30797U 07004D   26262.00898911 -.00000481  00000+0  00000+0 0  9993","line2":"2 30797   8.2353  74.8982 8304765 246.4572   9.5625  0.87844503 41898","mean_motion":0.87844503,"eccentricity":0.8304765,"inclination_deg":8.2353,"raan_deg":74.8982,"arg_perigee_deg":246.4572,"mean_anomaly_deg":9.5625,"bstar":0,"rev_number":4189,"period_min":1639.2602278141,"perigee_km":1428.9441130485,"apogee_km":77920.963189821,"semimajor_km":46053.090651435,"source":"CELESTRAK","updated_at":"2026-09-20T09:00:13.649733Z"}}}